Weather History for KCLT - May, 2012

Change the Weather History Date:

Saturday, May 26, 2012

  Actual Average Record
Temperature  
Mean Temperature 77 °F 70 °F  
Max Temperature 89 °F 81 °F 96 °F (1995)
Min Temperature 64 °F 59 °F 45 °F (1979)
Degree Days  
Heating Degree Days 0 1  
Month to date heating degree days 11 50  
Since 1 July heating degree days 2597 3382  
Cooling Degree Days 12 6  
Month to date cooling degree days 163 93  
Year to date cooling degree days 270 130  
Growing Degree Days 26 (Base 50)    
Moisture  
Dew Point 65 °F    
Average Humidity 70    
Maximum Humidity 93    
Minimum Humidity 46    
Precipitation  
Precipitation 0.00 in 0.11 in 3.03 in (1890)
Month to date precipitation 5.89 2.60  
Year to date precipitation 15.03 16.38  
Snow  
Snow 0.00 in 0.00 in 0.00 in ()
Month to date snowfall 0.0 0.0  
Since 1 July snowfall T 4.3  
Snow Depth 0.00 in    
Sea Level Pressure  
Sea Level Pressure 30.11 in    
Wind  
Wind Speed 6 mph (NE)    
Max Wind Speed 14 mph    
Max Gust Speed 20 mph    
Visibility 10 miles    
Events      
T = Trace of Precipitation, MM = Missing Value Source: NWS Daily Summary

Daily Weather History Graph

Daily Weather History Graph

Search for Another Location

Airport or City:

Trip Planner

Search our weather history database for the weather conditions in past years. The results will help you decide how hot, cold, wet, or windy it might be!

Date:

Astronomy

May. 26, 2012 Rise Set
Actual Time 6:12 AM EDT 8:29 PM EDT
Civil Twilight 5:43 AM EDT 8:58 PM EDT
Nautical Twilight 5:08 AM EDT 9:34 PM EDT
Astronomical Twilight 4:29 AM EDT 10:12 PM EDT
Moon 11:07 AM EDT (5/26) 12:07 AM EDT (5/26)
Length of Visible Light 15h 14m
Length of Day
14h 16m
Waxing Crescent, 28% of the Moon is Illuminated
May 26
Waxing Crescent
May 28
First Quarter
Jun 4
Full
Jun 11
Last Quarter
Jun 19
New

Hourly Weather History & Observations

Time (EDT) Temp. Heat Index Dew Point Humidity Pressure Visibility Wind Dir Wind Speed Gust Speed Precip Events Conditions
12:52 AM 68.0 °F - 63.0 °F 84% 30.11 in 10.0 mi Calm Calm - N/A   Scattered Clouds
1:52 AM 68.0 °F - 64.0 °F 87% 30.10 in 10.0 mi Calm Calm - N/A   Scattered Clouds
2:52 AM 70.0 °F - 64.0 °F 81% 30.09 in 10.0 mi Calm Calm - N/A   Partly Cloudy
3:52 AM 68.0 °F - 64.4 °F 88% 30.12 in 10.0 mi NNW 6.9 mph - N/A   Clear
4:52 AM 64.9 °F - 63.0 °F 93% 30.10 in 10.0 mi Calm Calm - N/A   Clear
5:52 AM 66.9 °F - 63.0 °F 87% 30.12 in 10.0 mi NNE 3.5 mph - N/A   Clear
6:52 AM 70.0 °F - 64.9 °F 84% 30.13 in 7.0 mi NE 4.6 mph - N/A   Partly Cloudy
7:52 AM 73.9 °F - 66.9 °F 79% 30.13 in 8.0 mi Calm Calm - N/A   Clear
8:52 AM 75.9 °F - 66.9 °F 74% 30.14 in 10.0 mi ENE 4.6 mph - N/A   Clear
9:52 AM 80.1 °F 82.7 °F 68.0 °F 67% 30.14 in 10.0 mi ENE 4.6 mph - N/A   Clear
10:52 AM 82.9 °F 85.8 °F 68.0 °F 60% 30.15 in 10.0 mi Variable 6.9 mph - N/A   Scattered Clouds
11:52 AM 84.9 °F 88.2 °F 68.0 °F 57% 30.14 in 10.0 mi ENE 9.2 mph - N/A   Partly Cloudy
12:52 PM 84.9 °F 87.6 °F 66.9 °F 55% 30.13 in 10.0 mi ENE 5.8 mph - N/A   Partly Cloudy
1:52 PM 87.1 °F 89.9 °F 66.9 °F 51% 30.13 in 10.0 mi North 8.1 mph - N/A   Mostly Cloudy
2:52 PM 88.0 °F 91.4 °F 68.0 °F 51% 30.11 in 10.0 mi NNE 9.2 mph 16.1 mph N/A   Scattered Clouds
3:52 PM 88.0 °F 90.7 °F 66.9 °F 49% 30.08 in 10.0 mi NE 10.4 mph - N/A   Partly Cloudy
4:52 PM 88.0 °F 90.3 °F 66.0 °F 48% 30.07 in 10.0 mi NNE 10.4 mph - N/A   Partly Cloudy
5:52 PM 88.0 °F 89.6 °F 64.9 °F 46% 30.06 in 10.0 mi East 11.5 mph - N/A   Scattered Clouds
6:52 PM 84.9 °F 86.6 °F 64.9 °F 51% 30.05 in 10.0 mi East 9.2 mph - N/A   Partly Cloudy
7:52 PM 82.9 °F 84.4 °F 64.0 °F 53% 30.06 in 10.0 mi ENE 9.2 mph - N/A   Partly Cloudy
8:52 PM 81.0 °F 81.9 °F 62.1 °F 52% 30.07 in 10.0 mi ENE 8.1 mph 17.3 mph N/A   Clear
9:52 PM 79.0 °F - 63.0 °F 58% 30.09 in 10.0 mi ENE 6.9 mph - N/A   Clear
10:52 PM 79.0 °F - 63.0 °F 58% 30.10 in 10.0 mi East 6.9 mph - N/A   Clear
11:52 PM 77.0 °F - 63.0 °F 62% 30.10 in 10.0 mi ENE 6.9 mph - N/A   Clear